TimeMST,TemperatureF,Dew PointF,Humidity,Sea Level PressureIn,VisibilityMPH,Wind Direction,Wind SpeedMPH,Gust SpeedMPH,PrecipitationIn,Events,Conditions,WindDirDegrees,DateUTC
12:53 AM,30.9,19.0,61,30.02,10.0,East,4.6,-,N/A,,Mostly Cloudy,80,2012-12-03 07:53:00
1:53 AM,30.9,19.9,64,30.00,10.0,NE,3.5,-,N/A,,Clear,40,2012-12-03 08:53:00
2:53 AM,28.9,19.0,67,30.03,10.0,Calm,Calm,-,N/A,,Scattered Clouds,0,2012-12-03 09:53:00
3:53 AM,30.9,21.0,67,30.04,10.0,ENE,6.9,-,N/A,,Overcast,70,2012-12-03 10:53:00
4:53 AM,32.0,23.0,69,30.05,8.0,South,4.6,-,0.00,Rain,Light Rain,170,2012-12-03 11:53:00
5:53 AM,33.1,23.0,66,30.09,10.0,North,6.9,-,0.00,,Scattered Clouds,10,2012-12-03 12:53:00
6:53 AM,30.0,21.0,69,30.13,10.0,NNE,3.5,-,N/A,,Clear,20,2012-12-03 13:53:00
8:53 AM,37.9,25.0,60,30.12,10.0,SSE,3.5,-,N/A,,Clear,160,2012-12-03 15:53:00
9:53 AM,48.0,33.1,56,30.09,10.0,WSW,10.4,-,N/A,,Clear,250,2012-12-03 16:53:00
10:53 AM,51.1,33.1,50,30.07,10.0,WSW,6.9,19.6,N/A,,Clear,240,2012-12-03 17:53:00
11:53 AM,52.0,32.0,47,30.06,10.0,SW,16.1,24.2,N/A,,Mostly Cloudy,230,2012-12-03 18:53:00
12:53 PM,53.1,30.0,41,30.06,10.0,West,16.1,26.5,N/A,,Clear,260,2012-12-03 19:53:00
1:53 PM,54.0,30.0,40,30.06,10.0,West,20.7,29.9,N/A,,Scattered Clouds,260,2012-12-03 20:53:00
2:53 PM,53.1,28.9,40,30.09,10.0,West,18.4,29.9,N/A,,Clear,270,2012-12-03 21:53:00
3:53 PM,48.9,28.9,46,30.12,10.0,WSW,10.4,19.6,N/A,,Clear,250,2012-12-03 22:53:00
4:53 PM,46.0,28.0,50,30.16,10.0,WSW,11.5,-,N/A,,Clear,240,2012-12-03 23:53:00
5:53 PM,45.0,30.0,56,30.15,10.0,SW,9.2,-,N/A,,Clear,230,2012-12-04 00:53:00
6:53 PM,43.0,30.0,60,30.20,10.0,WSW,12.7,-,N/A,,Clear,250,2012-12-04 01:53:00
7:53 PM,39.9,28.9,65,30.25,10.0,West,5.8,-,N/A,,Clear,270,2012-12-04 02:53:00
8:53 PM,36.0,27.0,70,30.24,10.0,West,4.6,-,N/A,,Clear,260,2012-12-04 03:53:00
9:53 PM,28.9,23.0,78,30.25,10.0,NNE,3.5,-,N/A,,Clear,30,2012-12-04 04:53:00
11:53 PM,25.0,19.0,78,30.28,10.0,NNE,3.5,-,N/A,,Clear,30,2012-12-04 06:53:00